Regional Weather Roundup
Issued by NWS Raleigh/Durham, NC

Home | Current Version | Previous Version | Text Only | Print | Product List | Glossary On
Versions: 1 2 3 4 5 6 7 8 9 10 11 12 13 14 15 16 17 18 19 20 21 22 23 24 25 26 27
000
ASUS42 KRAH 191710
RWRRAH
NORTH CAROLINA WEATHER ROUNDUP
NATIONAL WEATHER SERVICE RALEIGH NC
100 PM EDT SAT APR 19 2014

NOTE: "FAIR" INDICATES FEW OR NO CLOUDS BELOW 12,000 FEET WITH NO
SIGNIFICANT WEATHER AND/OR OBSTRUCTIONS TO VISIBILITY.

NCZ001-053-055-056-065-067-191800-
WESTERN NORTH CAROLINA

CITY           SKY/WX    TMP DP  RH WIND       PRES   REMARKS
ASHEVILLE      LGT RAIN  54  49  83 NW6       30.18F
JEFFERSON      CLOUDY    56  24  28 NE8G17    30.21S
MORGANTON      LGT RAIN  56  48  76 N9        30.23F
HICKORY        LGT RAIN  55  47  74 N9        30.18F
RUTHERFORDTON  RAIN      53  49  87 NE7       30.19S
MOUNT AIRY     CLOUDY    61  42  50 E9        30.20S
BOONE          LGT RAIN  50  42  73 SE3       30.21S
$$

NCZ021-022-025-041-071-084-088-191800-
CENTRAL NORTH CAROLINA

CITY           SKY/WX    TMP DP  RH WIND       PRES   REMARKS
CHARLOTTE      LGT RAIN  50  49  96 N10       30.16S FOG
GREENSBORO     CLOUDY    53  43  68 NE13      30.18F
WINSTON-SALEM  CLOUDY    52  43  71 NE13      30.21S
RALEIGH-DURHAM LGT RAIN  50  46  86 NE10      30.20S FOG
FORT BRAGG     LGT RAIN  51  49  94 NE10G17   30.12F
FAYETTEVILLE   CLOUDY    53  50  89 NE18G25   30.10F
CHAPEL HILL    CLOUDY    50  46  86 NE13      30.20S
BURLINGTON     CLOUDY    54  44  69 N14G21    30.19S
LAURINBURG     CLOUDY    52  51  97 NE18G28   30.10F FOG
$$

NCZ011-015-027-028-043-044-047-080-103-191800-
NORTHEASTERN NORTH CAROLINA

CITY           SKY/WX    TMP DP  RH WIND       PRES   REMARKS
ROCKY MT-WILSO CLOUDY    50  46  86 NE12G20   30.18F
GREENVILLE     LGT RAIN  50  46  87 NE13G18   30.18S
WASHINGTON     CLOUDY    50  46  85 NE13G18   30.15S
ELIZABETH CITY CLOUDY    51  43  74 NE17G28   30.20F
MANTEO         LGT RAIN  49  47  92 E20G28    30.17F
CAPE HATTERAS  LGT RAIN  54  54 100 NE14G29   30.10S
$$

NCZ078-087-090-091-093-098-101-191800-
SOUTHEASTERN NORTH CAROLINA

CITY           SKY/WX    TMP DP  RH WIND       PRES   REMARKS
LUMBERTON      LGT RAIN  53  51  93 NE12      30.08S FOG
GOLDSBORO      LGT RAIN  50  50 100 NE13G18   30.12F
KINSTON        CLOUDY    50  48  93 NE14G24   30.14S
KENANSVILLE    CLOUDY    50  49  95 NE8       30.11F
NEW BERN       CLOUDY    55  51  86 NE15G26   30.10F
CHERRY POINT   CLOUDY    55  51  86 NE20G32   30.08F
BEAUFORT       LGT RAIN  56  54  93 NE16G30   30.05F
JACKSONVILLE   LGT RAIN  57  57 100 NE17G24   30.06S
WILMINGTON     CLOUDY    57  54  89 N15       30.03F FOG
$$




USA.gov is the U.S. government's official web portal to all federal, state and local government web resources and services.